owner,sensor,date,latitude,longitude,air_temperature,qcFlag 
WAVCIS,ioos:station:WAVCIS:CSI03:1,2010-03-01T00:00:00Z,29.4412,-92.0613,14.2,11111222 
WAVCIS,ioos:station:WAVCIS:CSI03:1,2010-03-01T01:00:00Z,29.4412,-92.0613,14.83,11111222 
WAVCIS,ioos:station:WAVCIS:CSI03:1,2010-03-01T02:00:00Z,29.4412,-92.0613,12.73,11111222 
WAVCIS,ioos:station:WAVCIS:CSI03:1,2010-03-01T03:00:00Z,29.4412,-92.0613,12.51,11111222 
WAVCIS,ioos:station:WAVCIS:CSI03:1,2010-03-01T04:00:00Z,29.4412,-92.0613,12.44,11111222 
WAVCIS,ioos:station:WAVCIS:CSI03:1,2010-03-01T05:00:00Z,29.4412,-92.0613,12.3,11111222 
WAVCIS,ioos:station:WAVCIS:CSI03:1,2010-03-01T06:00:00Z,29.4412,-92.0613,12.21,11111222 
WAVCIS,ioos:station:WAVCIS:CSI03:1,2010-03-01T07:00:00Z,29.4412,-92.0613,12.01,11111222 
WAVCIS,ioos:station:WAVCIS:CSI03:1,2010-03-01T08:00:00Z,29.4412,-92.0613,11.81,11111222 
WAVCIS,ioos:station:WAVCIS:CSI03:1,2010-03-01T09:00:00Z,29.4412,-92.0613,11.66,11111222 
WAVCIS,ioos:station:WAVCIS:CSI03:1,2010-03-01T10:00:00Z,29.4412,-92.0613,11.4,11111222 
WAVCIS,ioos:station:WAVCIS:CSI03:1,2010-03-01T11:00:00Z,29.4412,-92.0613,11.48,11111222 
WAVCIS,ioos:station:WAVCIS:CSI03:1,2010-03-01T12:00:00Z,29.4412,-92.0613,11.43,11111222 
WAVCIS,ioos:station:WAVCIS:CSI03:1,2010-03-01T13:00:00Z,29.4412,-92.0613,11.13,11111222 
WAVCIS,ioos:station:WAVCIS:CSI03:1,2010-03-01T14:00:00Z,29.4412,-92.0613,11.16,11111222 
WAVCIS,ioos:station:WAVCIS:CSI03:1,2010-03-01T15:00:00Z,29.4412,-92.0613,11.62,11111222 
WAVCIS,ioos:station:WAVCIS:CSI03:1,2010-03-01T16:00:00Z,29.4412,-92.0613,11.71,11111222 
WAVCIS,ioos:station:WAVCIS:CSI03:1,2010-03-01T17:00:00Z,29.4412,-92.0613,12.38,11111222 
WAVCIS,ioos:station:WAVCIS:CSI03:1,2010-03-01T18:00:00Z,29.4412,-92.0613,12.7,11111222 
WAVCIS,ioos:station:WAVCIS:CSI03:1,2010-03-01T19:00:00Z,29.4412,-92.0613,12.6,11111222 
WAVCIS,ioos:station:WAVCIS:CSI03:1,2010-03-01T20:00:00Z,29.4412,-92.0613,13.11,11111222 
WAVCIS,ioos:station:WAVCIS:CSI03:1,2010-03-01T21:00:00Z,29.4412,-92.0613,9.59,11111222 
WAVCIS,ioos:station:WAVCIS:CSI03:1,2010-03-01T22:00:00Z,29.4412,-92.0613,9.94,11111222 
WAVCIS,ioos:station:WAVCIS:CSI03:1,2010-03-01T23:00:00Z,29.4412,-92.0613,10.92,11111222 
WAVCIS,ioos:station:WAVCIS:CSI03:1,2010-03-02T00:00:00Z,29.4412,-92.0613,10.94,11111222 
WAVCIS,ioos:station:WAVCIS:CSI03:1,2010-03-02T01:00:00Z,29.4412,-92.0613,10.89,11111222 
WAVCIS,ioos:station:WAVCIS:CSI03:1,2010-03-02T02:00:00Z,29.4412,-92.0613,10.71,11111222 
WAVCIS,ioos:station:WAVCIS:CSI03:1,2010-03-02T03:00:00Z,29.4412,-92.0613,10.44,11111222 
WAVCIS,ioos:station:WAVCIS:CSI03:1,2010-03-02T04:00:00Z,29.4412,-92.0613,9.98,11111222 
WAVCIS,ioos:station:WAVCIS:CSI03:1,2010-03-02T05:00:00Z,29.4412,-92.0613,9.61,11111222 
WAVCIS,ioos:station:WAVCIS:CSI03:1,2010-03-02T06:00:00Z,29.4412,-92.0613,8.77,11111222 
WAVCIS,ioos:station:WAVCIS:CSI03:1,2010-03-02T07:00:00Z,29.4412,-92.0613,8.25,11111222 
WAVCIS,ioos:station:WAVCIS:CSI03:1,2010-03-02T08:00:00Z,29.4412,-92.0613,8.08,11111222 
WAVCIS,ioos:station:WAVCIS:CSI03:1,2010-03-02T09:00:00Z,29.4412,-92.0613,7.5,11111222 
WAVCIS,ioos:station:WAVCIS:CSI03:1,2010-03-02T10:00:00Z,29.4412,-92.0613,6.506,11111222 
WAVCIS,ioos:station:WAVCIS:CSI03:1,2010-03-02T11:00:00Z,29.4412,-92.0613,6.661,11111222 
WAVCIS,ioos:station:WAVCIS:CSI03:1,2010-03-02T12:00:00Z,29.4412,-92.0613,6.636,11111222 
WAVCIS,ioos:station:WAVCIS:CSI03:1,2010-03-02T13:00:00Z,29.4412,-92.0613,6.956,11111222 
WAVCIS,ioos:station:WAVCIS:CSI03:1,2010-03-02T14:00:00Z,29.4412,-92.0613,6.9,11111222 
WAVCIS,ioos:station:WAVCIS:CSI03:1,2010-03-02T15:00:00Z,29.4412,-92.0613,6.902,11111222 
WAVCIS,ioos:station:WAVCIS:CSI03:1,2010-03-02T16:00:00Z,29.4412,-92.0613,6.633,11111222 
WAVCIS,ioos:station:WAVCIS:CSI03:1,2010-03-02T17:00:00Z,29.4412,-92.0613,6.82,11111222 
WAVCIS,ioos:station:WAVCIS:CSI03:1,2010-03-02T18:00:00Z,29.4412,-92.0613,7.93,11111222 
WAVCIS,ioos:station:WAVCIS:CSI03:1,2010-03-02T19:00:00Z,29.4412,-92.0613,8.92,11111222 
WAVCIS,ioos:station:WAVCIS:CSI03:1,2010-03-02T20:00:00Z,29.4412,-92.0613,9.34,11111222 
WAVCIS,ioos:station:WAVCIS:CSI03:1,2010-03-02T21:00:00Z,29.4412,-92.0613,9.63,11111222 
WAVCIS,ioos:station:WAVCIS:CSI03:1,2010-03-02T22:00:00Z,29.4412,-92.0613,10.08,11111222 
WAVCIS,ioos:station:WAVCIS:CSI03:1,2010-03-02T23:00:00Z,29.4412,-92.0613,10.25,11111222 
WAVCIS,ioos:station:WAVCIS:CSI03:1,2010-03-03T00:00:00Z,29.4412,-92.0613,10.38,11111222 
WAVCIS,ioos:station:WAVCIS:CSI03:1,2010-03-03T01:00:00Z,29.4412,-92.0613,10.03,11111222 
WAVCIS,ioos:station:WAVCIS:CSI03:1,2010-03-03T02:00:00Z,29.4412,-92.0613,9.67,11111222 
WAVCIS,ioos:station:WAVCIS:CSI03:1,2010-03-03T03:00:00Z,29.4412,-92.0613,9.3,11111222 
WAVCIS,ioos:station:WAVCIS:CSI03:1,2010-03-03T04:00:00Z,29.4412,-92.0613,8.78,11111222 
WAVCIS,ioos:station:WAVCIS:CSI03:1,2010-03-03T05:00:00Z,29.4412,-92.0613,8.37,11111222 
WAVCIS,ioos:station:WAVCIS:CSI03:1,2010-03-03T06:00:00Z,29.4412,-92.0613,7.96,11111222 
WAVCIS,ioos:station:WAVCIS:CSI03:1,2010-03-03T07:00:00Z,29.4412,-92.0613,7.74,11111222 
WAVCIS,ioos:station:WAVCIS:CSI03:1,2010-03-03T08:00:00Z,29.4412,-92.0613,7.36,11111222 
WAVCIS,ioos:station:WAVCIS:CSI03:1,2010-03-03T09:00:00Z,29.4412,-92.0613,6.843,11111222 
WAVCIS,ioos:station:WAVCIS:CSI03:1,2010-03-03T10:00:00Z,29.4412,-92.0613,6.452,11111222 
WAVCIS,ioos:station:WAVCIS:CSI03:1,2010-03-03T11:00:00Z,29.4412,-92.0613,6.048,11111222 
WAVCIS,ioos:station:WAVCIS:CSI03:1,2010-03-03T12:00:00Z,29.4412,-92.0613,5.934,11111222 
WAVCIS,ioos:station:WAVCIS:CSI03:1,2010-03-03T13:00:00Z,29.4412,-92.0613,5.828,11111222 
WAVCIS,ioos:station:WAVCIS:CSI03:1,2010-03-03T14:00:00Z,29.4412,-92.0613,6.201,11111222 
WAVCIS,ioos:station:WAVCIS:CSI03:1,2010-03-03T15:00:00Z,29.4412,-92.0613,6.448,11111222 
WAVCIS,ioos:station:WAVCIS:CSI03:1,2010-03-03T16:00:00Z,29.4412,-92.0613,6.438,11111222 
WAVCIS,ioos:station:WAVCIS:CSI03:1,2010-03-03T17:00:00Z,29.4412,-92.0613,6.894,11111222 
WAVCIS,ioos:station:WAVCIS:CSI03:1,2010-03-03T18:00:00Z,29.4412,-92.0613,7.65,11111222 
WAVCIS,ioos:station:WAVCIS:CSI03:1,2010-03-03T19:00:00Z,29.4412,-92.0613,8.49,11111222 
WAVCIS,ioos:station:WAVCIS:CSI03:1,2010-03-03T20:00:00Z,29.4412,-92.0613,9.38,11111222 
WAVCIS,ioos:station:WAVCIS:CSI03:1,2010-03-03T21:00:00Z,29.4412,-92.0613,10.34,11111222 
WAVCIS,ioos:station:WAVCIS:CSI03:1,2010-03-03T22:00:00Z,29.4412,-92.0613,10.98,11111222 
WAVCIS,ioos:station:WAVCIS:CSI03:1,2010-03-03T23:00:00Z,29.4412,-92.0613,11.55,11111222 
WAVCIS,ioos:station:WAVCIS:CSI03:1,2010-03-04T00:00:00Z,29.4412,-92.0613,11.63,11111222 
WAVCIS,ioos:station:WAVCIS:CSI03:1,2010-03-04T01:00:00Z,29.4412,-92.0613,11.41,11111222 
WAVCIS,ioos:station:WAVCIS:CSI03:1,2010-03-04T02:00:00Z,29.4412,-92.0613,11.39,11111222 
WAVCIS,ioos:station:WAVCIS:CSI03:1,2010-03-04T03:00:00Z,29.4412,-92.0613,11.12,11111222 
WAVCIS,ioos:station:WAVCIS:CSI03:1,2010-03-04T04:00:00Z,29.4412,-92.0613,10.89,11111222 
WAVCIS,ioos:station:WAVCIS:CSI03:1,2010-03-04T05:00:00Z,29.4412,-92.0613,10.52,11111222 
WAVCIS,ioos:station:WAVCIS:CSI03:1,2010-03-04T06:00:00Z,29.4412,-92.0613,10.29,11111222 
WAVCIS,ioos:station:WAVCIS:CSI03:1,2010-03-04T07:00:00Z,29.4412,-92.0613,10.37,11111222 
WAVCIS,ioos:station:WAVCIS:CSI03:1,2010-03-04T08:00:00Z,29.4412,-92.0613,10.06,11111222 
WAVCIS,ioos:station:WAVCIS:CSI03:1,2010-03-04T09:00:00Z,29.4412,-92.0613,9.85,11111222 
WAVCIS,ioos:station:WAVCIS:CSI03:1,2010-03-04T10:00:00Z,29.4412,-92.0613,9.67,11111222 
WAVCIS,ioos:station:WAVCIS:CSI03:1,2010-03-04T11:00:00Z,29.4412,-92.0613,9.51,11111222 
WAVCIS,ioos:station:WAVCIS:CSI03:1,2010-03-04T12:00:00Z,29.4412,-92.0613,9.41,11111222 
WAVCIS,ioos:station:WAVCIS:CSI03:1,2010-03-04T13:00:00Z,29.4412,-92.0613,9.83,11111222 
WAVCIS,ioos:station:WAVCIS:CSI03:1,2010-03-04T14:00:00Z,29.4412,-92.0613,10.34,11111222 
WAVCIS,ioos:station:WAVCIS:CSI03:1,2010-03-04T15:00:00Z,29.4412,-92.0613,10.49,11111222 
WAVCIS,ioos:station:WAVCIS:CSI03:1,2010-03-04T16:00:00Z,29.4412,-92.0613,10.16,11111222 
WAVCIS,ioos:station:WAVCIS:CSI03:1,2010-03-04T17:00:00Z,29.4412,-92.0613,9.8,11111222 
WAVCIS,ioos:station:WAVCIS:CSI03:1,2010-03-04T18:00:00Z,29.4412,-92.0613,9.81,11111222 
WAVCIS,ioos:station:WAVCIS:CSI03:1,2010-03-04T19:00:00Z,29.4412,-92.0613,10.25,11111222 
WAVCIS,ioos:station:WAVCIS:CSI03:1,2010-03-04T20:00:00Z,29.4412,-92.0613,11.1,11111222 
WAVCIS,ioos:station:WAVCIS:CSI03:1,2010-03-04T21:00:00Z,29.4412,-92.0613,11.72,11111222 
WAVCIS,ioos:station:WAVCIS:CSI03:1,2010-03-04T22:00:00Z,29.4412,-92.0613,11.52,11111222 
WAVCIS,ioos:station:WAVCIS:CSI03:1,2010-03-04T23:00:00Z,29.4412,-92.0613,12.05,11111222 
WAVCIS,ioos:station:WAVCIS:CSI03:1,2010-03-05T00:00:00Z,29.4412,-92.0613,12.51,11111222 
WAVCIS,ioos:station:WAVCIS:CSI03:1,2010-03-05T01:00:00Z,29.4412,-92.0613,11.9,11111222 
WAVCIS,ioos:station:WAVCIS:CSI03:1,2010-03-05T02:00:00Z,29.4412,-92.0613,12.46,11111222 
WAVCIS,ioos:station:WAVCIS:CSI03:1,2010-03-05T03:00:00Z,29.4412,-92.0613,12.32,11111222 
WAVCIS,ioos:station:WAVCIS:CSI03:1,2010-03-05T04:00:00Z,29.4412,-92.0613,12.24,11111222 
WAVCIS,ioos:station:WAVCIS:CSI03:1,2010-03-05T05:00:00Z,29.4412,-92.0613,11.92,11111222 
WAVCIS,ioos:station:WAVCIS:CSI03:1,2010-03-05T06:00:00Z,29.4412,-92.0613,11.75,11111222 
WAVCIS,ioos:station:WAVCIS:CSI03:1,2010-03-05T07:00:00Z,29.4412,-92.0613,11.57,11111222 
WAVCIS,ioos:station:WAVCIS:CSI03:1,2010-03-05T08:00:00Z,29.4412,-92.0613,11.46,11111222 
WAVCIS,ioos:station:WAVCIS:CSI03:1,2010-03-05T09:00:00Z,29.4412,-92.0613,11.19,11111222 
WAVCIS,ioos:station:WAVCIS:CSI03:1,2010-03-05T10:00:00Z,29.4412,-92.0613,11.01,11111222 
WAVCIS,ioos:station:WAVCIS:CSI03:1,2010-03-05T11:00:00Z,29.4412,-92.0613,10.59,11111222 
WAVCIS,ioos:station:WAVCIS:CSI03:1,2010-03-05T12:00:00Z,29.4412,-92.0613,10.42,11111222 
WAVCIS,ioos:station:WAVCIS:CSI03:1,2010-03-05T13:00:00Z,29.4412,-92.0613,10.51,11111222 
WAVCIS,ioos:station:WAVCIS:CSI03:1,2010-03-05T14:00:00Z,29.4412,-92.0613,10.62,11111222 
WAVCIS,ioos:station:WAVCIS:CSI03:1,2010-03-05T15:00:00Z,29.4412,-92.0613,10.45,11111222 
WAVCIS,ioos:station:WAVCIS:CSI03:1,2010-03-05T16:00:00Z,29.4412,-92.0613,11.35,11111222 
WAVCIS,ioos:station:WAVCIS:CSI03:1,2010-03-05T17:00:00Z,29.4412,-92.0613,12.0,11111222 
WAVCIS,ioos:station:WAVCIS:CSI03:1,2010-03-05T18:00:00Z,29.4412,-92.0613,11.88,11111222 
WAVCIS,ioos:station:WAVCIS:CSI03:1,2010-03-05T19:00:00Z,29.4412,-92.0613,12.26,11111222 
WAVCIS,ioos:station:WAVCIS:CSI03:1,2010-03-05T20:00:00Z,29.4412,-92.0613,13.04,11111222 
WAVCIS,ioos:station:WAVCIS:CSI03:1,2010-03-05T21:00:00Z,29.4412,-92.0613,13.49,11111222 
WAVCIS,ioos:station:WAVCIS:CSI03:1,2010-03-05T22:00:00Z,29.4412,-92.0613,14.14,11111222 
WAVCIS,ioos:station:WAVCIS:CSI03:1,2010-03-05T23:00:00Z,29.4412,-92.0613,14.33,11111222 
WAVCIS,ioos:station:WAVCIS:CSI03:1,2010-03-06T00:00:00Z,29.4412,-92.0613,13.57,11111222 
WAVCIS,ioos:station:WAVCIS:CSI03:1,2010-03-06T01:00:00Z,29.4412,-92.0613,12.9,11111222 
WAVCIS,ioos:station:WAVCIS:CSI03:1,2010-03-06T02:00:00Z,29.4412,-92.0613,12.84,11111222 
WAVCIS,ioos:station:WAVCIS:CSI03:1,2010-03-06T03:00:00Z,29.4412,-92.0613,12.66,11111222 
WAVCIS,ioos:station:WAVCIS:CSI03:1,2010-03-06T04:00:00Z,29.4412,-92.0613,12.97,11111222 
WAVCIS,ioos:station:WAVCIS:CSI03:1,2010-03-06T05:00:00Z,29.4412,-92.0613,12.72,11111222 
WAVCIS,ioos:station:WAVCIS:CSI03:1,2010-03-06T06:00:00Z,29.4412,-92.0613,12.7,11111222 
WAVCIS,ioos:station:WAVCIS:CSI03:1,2010-03-06T07:00:00Z,29.4412,-92.0613,12.45,11111222 
WAVCIS,ioos:station:WAVCIS:CSI03:1,2010-03-06T08:00:00Z,29.4412,-92.0613,12.29,11111222 
WAVCIS,ioos:station:WAVCIS:CSI03:1,2010-03-06T09:00:00Z,29.4412,-92.0613,12.01,11111222 
WAVCIS,ioos:station:WAVCIS:CSI03:1,2010-03-06T10:00:00Z,29.4412,-92.0613,11.62,11111222 
WAVCIS,ioos:station:WAVCIS:CSI03:1,2010-03-06T11:00:00Z,29.4412,-92.0613,10.94,11111222 
WAVCIS,ioos:station:WAVCIS:CSI03:1,2010-03-06T12:00:00Z,29.4412,-92.0613,11.13,11111222 
WAVCIS,ioos:station:WAVCIS:CSI03:1,2010-03-06T13:00:00Z,29.4412,-92.0613,11.28,11111222 
WAVCIS,ioos:station:WAVCIS:CSI03:1,2010-03-06T14:00:00Z,29.4412,-92.0613,11.81,11111222 
WAVCIS,ioos:station:WAVCIS:CSI03:1,2010-03-06T15:00:00Z,29.4412,-92.0613,12.1,11111222 
WAVCIS,ioos:station:WAVCIS:CSI03:1,2010-03-06T16:00:00Z,29.4412,-92.0613,13.03,11111222 
WAVCIS,ioos:station:WAVCIS:CSI03:1,2010-03-06T17:00:00Z,29.4412,-92.0613,13.95,11111222 
WAVCIS,ioos:station:WAVCIS:CSI03:1,2010-03-06T18:00:00Z,29.4412,-92.0613,14.45,11111222 
WAVCIS,ioos:station:WAVCIS:CSI03:1,2010-03-06T19:00:00Z,29.4412,-92.0613,14.27,11111222 
WAVCIS,ioos:station:WAVCIS:CSI03:1,2010-03-06T20:00:00Z,29.4412,-92.0613,14.21,11111222 
WAVCIS,ioos:station:WAVCIS:CSI03:1,2010-03-06T21:00:00Z,29.4412,-92.0613,15.16,11111222 
WAVCIS,ioos:station:WAVCIS:CSI03:1,2010-03-06T22:00:00Z,29.4412,-92.0613,15.52,11111222 
WAVCIS,ioos:station:WAVCIS:CSI03:1,2010-03-06T23:00:00Z,29.4412,-92.0613,15.06,11111222 
WAVCIS,ioos:station:WAVCIS:CSI03:1,2010-03-07T00:00:00Z,29.4412,-92.0613,14.87,11111222 
WAVCIS,ioos:station:WAVCIS:CSI03:1,2010-03-07T01:00:00Z,29.4412,-92.0613,14.32,11111222 
WAVCIS,ioos:station:WAVCIS:CSI03:1,2010-03-07T02:00:00Z,29.4412,-92.0613,14.59,11111222 
WAVCIS,ioos:station:WAVCIS:CSI03:1,2010-03-07T03:00:00Z,29.4412,-92.0613,14.75,11111222 
WAVCIS,ioos:station:WAVCIS:CSI03:1,2010-03-07T04:00:00Z,29.4412,-92.0613,13.41,11111222 
WAVCIS,ioos:station:WAVCIS:CSI03:1,2010-03-07T05:00:00Z,29.4412,-92.0613,14.1,11111222 
WAVCIS,ioos:station:WAVCIS:CSI03:1,2010-03-07T06:00:00Z,29.4412,-92.0613,14.65,11111222 
WAVCIS,ioos:station:WAVCIS:CSI03:1,2010-03-07T07:00:00Z,29.4412,-92.0613,13.84,11111222 
WAVCIS,ioos:station:WAVCIS:CSI03:1,2010-03-07T08:00:00Z,29.4412,-92.0613,13.12,11111222 
WAVCIS,ioos:station:WAVCIS:CSI03:1,2010-03-07T09:00:00Z,29.4412,-92.0613,13.02,11111222 
WAVCIS,ioos:station:WAVCIS:CSI03:1,2010-03-07T10:00:00Z,29.4412,-92.0613,12.65,11111222 
WAVCIS,ioos:station:WAVCIS:CSI03:1,2010-03-07T11:00:00Z,29.4412,-92.0613,12.5,11111222 
WAVCIS,ioos:station:WAVCIS:CSI03:1,2010-03-07T12:00:00Z,29.4412,-92.0613,12.47,11111222 
WAVCIS,ioos:station:WAVCIS:CSI03:1,2010-03-07T13:00:00Z,29.4412,-92.0613,12.31,11111222 
WAVCIS,ioos:station:WAVCIS:CSI03:1,2010-03-07T14:00:00Z,29.4412,-92.0613,12.3,11111222 
WAVCIS,ioos:station:WAVCIS:CSI03:1,2010-03-07T15:00:00Z,29.4412,-92.0613,12.51,11111222 
WAVCIS,ioos:station:WAVCIS:CSI03:1,2010-03-07T16:00:00Z,29.4412,-92.0613,12.23,11111222 
WAVCIS,ioos:station:WAVCIS:CSI03:1,2010-03-07T17:00:00Z,29.4412,-92.0613,12.3,11111222 
WAVCIS,ioos:station:WAVCIS:CSI03:1,2010-03-07T18:00:00Z,29.4412,-92.0613,12.39,11111222 
WAVCIS,ioos:station:WAVCIS:CSI03:1,2010-03-07T19:00:00Z,29.4412,-92.0613,13.09,11111222 
WAVCIS,ioos:station:WAVCIS:CSI03:1,2010-03-07T20:00:00Z,29.4412,-92.0613,13.82,11111222 
WAVCIS,ioos:station:WAVCIS:CSI03:1,2010-03-07T21:00:00Z,29.4412,-92.0613,14.14,11111222 
WAVCIS,ioos:station:WAVCIS:CSI03:1,2010-03-07T22:00:00Z,29.4412,-92.0613,14.16,11111222 
WAVCIS,ioos:station:WAVCIS:CSI03:1,2010-03-07T23:00:00Z,29.4412,-92.0613,14.14,11111222 
WAVCIS,ioos:station:WAVCIS:CSI03:1,2010-03-08T00:00:00Z,29.4412,-92.0613,14.01,11111222 
WAVCIS,ioos:station:WAVCIS:CSI03:1,2010-03-08T01:00:00Z,29.4412,-92.0613,13.89,11111222 
WAVCIS,ioos:station:WAVCIS:CSI03:1,2010-03-08T02:00:00Z,29.4412,-92.0613,13.56,11111222 
WAVCIS,ioos:station:WAVCIS:CSI03:1,2010-03-08T03:00:00Z,29.4412,-92.0613,13.47,11111222 
WAVCIS,ioos:station:WAVCIS:CSI03:1,2010-03-08T04:00:00Z,29.4412,-92.0613,13.41,11111222 
WAVCIS,ioos:station:WAVCIS:CSI03:1,2010-03-08T05:00:00Z,29.4412,-92.0613,13.35,11111222 
WAVCIS,ioos:station:WAVCIS:CSI03:1,2010-03-08T06:00:00Z,29.4412,-92.0613,13.11,11111222 
WAVCIS,ioos:station:WAVCIS:CSI03:1,2010-03-08T07:00:00Z,29.4412,-92.0613,13.09,11111222 
WAVCIS,ioos:station:WAVCIS:CSI03:1,2010-03-08T08:00:00Z,29.4412,-92.0613,13.07,11111222 
WAVCIS,ioos:station:WAVCIS:CSI03:1,2010-03-08T09:00:00Z,29.4412,-92.0613,13.06,11111222 
WAVCIS,ioos:station:WAVCIS:CSI03:1,2010-03-08T10:00:00Z,29.4412,-92.0613,13.01,11111222 
WAVCIS,ioos:station:WAVCIS:CSI03:1,2010-03-08T11:00:00Z,29.4412,-92.0613,12.94,11111222 
WAVCIS,ioos:station:WAVCIS:CSI03:1,2010-03-08T12:00:00Z,29.4412,-92.0613,13.02,11111222 
WAVCIS,ioos:station:WAVCIS:CSI03:1,2010-03-08T13:00:00Z,29.4412,-92.0613,13.27,11111222 
WAVCIS,ioos:station:WAVCIS:CSI03:1,2010-03-08T14:00:00Z,29.4412,-92.0613,13.52,11111222 
WAVCIS,ioos:station:WAVCIS:CSI03:1,2010-03-08T15:00:00Z,29.4412,-92.0613,13.71,11111222 
WAVCIS,ioos:station:WAVCIS:CSI03:1,2010-03-08T16:00:00Z,29.4412,-92.0613,13.9,11111222 
WAVCIS,ioos:station:WAVCIS:CSI03:1,2010-03-08T17:00:00Z,29.4412,-92.0613,13.91,11111222 
WAVCIS,ioos:station:WAVCIS:CSI03:1,2010-03-08T18:00:00Z,29.4412,-92.0613,13.83,11111222 
WAVCIS,ioos:station:WAVCIS:CSI03:1,2010-03-08T19:00:00Z,29.4412,-92.0613,13.72,11111222 
WAVCIS,ioos:station:WAVCIS:CSI03:1,2010-03-08T20:00:00Z,29.4412,-92.0613,13.85,11111222 
WAVCIS,ioos:station:WAVCIS:CSI03:1,2010-03-08T21:00:00Z,29.4412,-92.0613,14.06,11111222 
WAVCIS,ioos:station:WAVCIS:CSI03:1,2010-03-08T22:00:00Z,29.4412,-92.0613,14.16,11111222 
WAVCIS,ioos:station:WAVCIS:CSI03:1,2010-03-08T23:00:00Z,29.4412,-92.0613,14.23,11111222 
WAVCIS,ioos:station:WAVCIS:CSI03:1,2010-03-09T00:00:00Z,29.4412,-92.0613,14.22,11111222 
WAVCIS,ioos:station:WAVCIS:CSI03:1,2010-03-09T01:00:00Z,29.4412,-92.0613,14.39,11111222 
WAVCIS,ioos:station:WAVCIS:CSI03:1,2010-03-09T02:00:00Z,29.4412,-92.0613,15.29,11111222 
WAVCIS,ioos:station:WAVCIS:CSI03:1,2010-03-09T03:00:00Z,29.4412,-92.0613,15.61,11111222 
WAVCIS,ioos:station:WAVCIS:CSI03:1,2010-03-09T04:00:00Z,29.4412,-92.0613,15.52,11111222 
WAVCIS,ioos:station:WAVCIS:CSI03:1,2010-03-09T05:00:00Z,29.4412,-92.0613,14.62,11111222 
WAVCIS,ioos:station:WAVCIS:CSI03:1,2010-03-09T06:00:00Z,29.4412,-92.0613,14.53,11111222 
WAVCIS,ioos:station:WAVCIS:CSI03:1,2010-03-09T07:00:00Z,29.4412,-92.0613,14.17,11111222 
WAVCIS,ioos:station:WAVCIS:CSI03:1,2010-03-09T08:00:00Z,29.4412,-92.0613,14.16,11111222 
WAVCIS,ioos:station:WAVCIS:CSI03:1,2010-03-09T09:00:00Z,29.4412,-92.0613,14.05,11111222 
WAVCIS,ioos:station:WAVCIS:CSI03:1,2010-03-09T10:00:00Z,29.4412,-92.0613,13.9,11111222 
WAVCIS,ioos:station:WAVCIS:CSI03:1,2010-03-09T11:00:00Z,29.4412,-92.0613,13.95,11111222 
WAVCIS,ioos:station:WAVCIS:CSI03:1,2010-03-09T12:00:00Z,29.4412,-92.0613,14.11,11111222 
WAVCIS,ioos:station:WAVCIS:CSI03:1,2010-03-09T13:00:00Z,29.4412,-92.0613,14.31,11111222 
WAVCIS,ioos:station:WAVCIS:CSI03:1,2010-03-09T14:00:00Z,29.4412,-92.0613,14.4,11111222 
WAVCIS,ioos:station:WAVCIS:CSI03:1,2010-03-09T15:00:00Z,29.4412,-92.0613,14.4,11111222 
WAVCIS,ioos:station:WAVCIS:CSI03:1,2010-03-09T16:00:00Z,29.4412,-92.0613,15.15,11111222 
WAVCIS,ioos:station:WAVCIS:CSI03:1,2010-03-09T17:00:00Z,29.4412,-92.0613,15.49,11111222 
WAVCIS,ioos:station:WAVCIS:CSI03:1,2010-03-09T18:00:00Z,29.4412,-92.0613,15.96,11111222 
WAVCIS,ioos:station:WAVCIS:CSI03:1,2010-03-09T19:00:00Z,29.4412,-92.0613,16.25,11111222 
WAVCIS,ioos:station:WAVCIS:CSI03:1,2010-03-09T20:00:00Z,29.4412,-92.0613,16.19,11111222 
WAVCIS,ioos:station:WAVCIS:CSI03:1,2010-03-09T21:00:00Z,29.4412,-92.0613,16.08,11111222 
WAVCIS,ioos:station:WAVCIS:CSI03:1,2010-03-09T22:00:00Z,29.4412,-92.0613,15.82,11111222 
WAVCIS,ioos:station:WAVCIS:CSI03:1,2010-03-09T23:00:00Z,29.4412,-92.0613,15.64,11111222 
WAVCIS,ioos:station:WAVCIS:CSI03:1,2010-03-10T00:00:00Z,29.4412,-92.0613,15.81,11111222 
WAVCIS,ioos:station:WAVCIS:CSI03:1,2010-03-10T01:00:00Z,29.4412,-92.0613,15.84,11111222 
WAVCIS,ioos:station:WAVCIS:CSI03:1,2010-03-10T02:00:00Z,29.4412,-92.0613,15.6,11111222 
WAVCIS,ioos:station:WAVCIS:CSI03:1,2010-03-10T03:00:00Z,29.4412,-92.0613,15.53,11111222 
WAVCIS,ioos:station:WAVCIS:CSI03:1,2010-03-10T04:00:00Z,29.4412,-92.0613,15.82,11111222 
WAVCIS,ioos:station:WAVCIS:CSI03:1,2010-03-10T05:00:00Z,29.4412,-92.0613,16.59,11111222 
WAVCIS,ioos:station:WAVCIS:CSI03:1,2010-03-10T06:00:00Z,29.4412,-92.0613,16.08,11111222 
WAVCIS,ioos:station:WAVCIS:CSI03:1,2010-03-10T07:00:00Z,29.4412,-92.0613,15.85,11111222 
WAVCIS,ioos:station:WAVCIS:CSI03:1,2010-03-10T08:00:00Z,29.4412,-92.0613,16.23,11111222 
WAVCIS,ioos:station:WAVCIS:CSI03:1,2010-03-10T09:00:00Z,29.4412,-92.0613,16.92,11111222 
WAVCIS,ioos:station:WAVCIS:CSI03:1,2010-03-10T10:00:00Z,29.4412,-92.0613,18.3,11111222 
WAVCIS,ioos:station:WAVCIS:CSI03:1,2010-03-10T11:00:00Z,29.4412,-92.0613,17.45,11111222 
WAVCIS,ioos:station:WAVCIS:CSI03:1,2010-03-10T12:00:00Z,29.4412,-92.0613,15.64,11111222 
WAVCIS,ioos:station:WAVCIS:CSI03:1,2010-03-10T13:00:00Z,29.4412,-92.0613,15.89,11111222 
WAVCIS,ioos:station:WAVCIS:CSI03:1,2010-03-10T14:00:00Z,29.4412,-92.0613,14.48,11111222 
WAVCIS,ioos:station:WAVCIS:CSI03:1,2010-03-10T15:00:00Z,29.4412,-92.0613,14.59,11111222 
WAVCIS,ioos:station:WAVCIS:CSI03:1,2010-03-10T16:00:00Z,29.4412,-92.0613,15.63,11111222 
WAVCIS,ioos:station:WAVCIS:CSI03:1,2010-03-10T17:00:00Z,29.4412,-92.0613,15.64,11111222 
WAVCIS,ioos:station:WAVCIS:CSI03:1,2010-03-10T18:00:00Z,29.4412,-92.0613,16.11,11111222 
WAVCIS,ioos:station:WAVCIS:CSI03:1,2010-03-10T19:00:00Z,29.4412,-92.0613,16.22,11111222 
WAVCIS,ioos:station:WAVCIS:CSI03:1,2010-03-10T20:00:00Z,29.4412,-92.0613,16.76,11111222 
WAVCIS,ioos:station:WAVCIS:CSI03:1,2010-03-10T21:00:00Z,29.4412,-92.0613,16.55,11111222 
WAVCIS,ioos:station:WAVCIS:CSI03:1,2010-03-10T22:00:00Z,29.4412,-92.0613,17.22,11111222 
WAVCIS,ioos:station:WAVCIS:CSI03:1,2010-03-10T23:00:00Z,29.4412,-92.0613,16.71,11111222 
WAVCIS,ioos:station:WAVCIS:CSI03:1,2010-03-11T00:00:00Z,29.4412,-92.0613,16.54,11111222 
WAVCIS,ioos:station:WAVCIS:CSI03:1,2010-03-11T01:00:00Z,29.4412,-92.0613,16.38,11111222 
WAVCIS,ioos:station:WAVCIS:CSI03:1,2010-03-11T02:00:00Z,29.4412,-92.0613,16.21,11111222 
WAVCIS,ioos:station:WAVCIS:CSI03:1,2010-03-11T03:00:00Z,29.4412,-92.0613,17.61,11111222 
WAVCIS,ioos:station:WAVCIS:CSI03:1,2010-03-11T04:00:00Z,29.4412,-92.0613,17.4,11111222 
WAVCIS,ioos:station:WAVCIS:CSI03:1,2010-03-11T05:00:00Z,29.4412,-92.0613,17.89,11111222 
WAVCIS,ioos:station:WAVCIS:CSI03:1,2010-03-11T06:00:00Z,29.4412,-92.0613,17.15,11111222 
WAVCIS,ioos:station:WAVCIS:CSI03:1,2010-03-11T07:00:00Z,29.4412,-92.0613,16.38,11111222 
WAVCIS,ioos:station:WAVCIS:CSI03:1,2010-03-11T08:00:00Z,29.4412,-92.0613,17.0,11111222 
WAVCIS,ioos:station:WAVCIS:CSI03:1,2010-03-11T09:00:00Z,29.4412,-92.0613,16.23,11111222 
WAVCIS,ioos:station:WAVCIS:CSI03:1,2010-03-11T10:00:00Z,29.4412,-92.0613,16.89,11111222 
WAVCIS,ioos:station:WAVCIS:CSI03:1,2010-03-11T11:00:00Z,29.4412,-92.0613,16.7,11111222 
WAVCIS,ioos:station:WAVCIS:CSI03:1,2010-03-11T12:00:00Z,29.4412,-92.0613,16.37,11111222 
WAVCIS,ioos:station:WAVCIS:CSI03:1,2010-03-11T13:00:00Z,29.4412,-92.0613,16.01,11111222 
WAVCIS,ioos:station:WAVCIS:CSI03:1,2010-03-11T14:00:00Z,29.4412,-92.0613,15.48,11111222 
WAVCIS,ioos:station:WAVCIS:CSI03:1,2010-03-11T15:00:00Z,29.4412,-92.0613,14.54,11111222 
WAVCIS,ioos:station:WAVCIS:CSI03:1,2010-03-11T16:00:00Z,29.4412,-92.0613,14.67,11111222 
WAVCIS,ioos:station:WAVCIS:CSI03:1,2010-03-11T17:00:00Z,29.4412,-92.0613,14.99,11111222 
WAVCIS,ioos:station:WAVCIS:CSI03:1,2010-03-11T18:00:00Z,29.4412,-92.0613,15.63,11111222 
WAVCIS,ioos:station:WAVCIS:CSI03:1,2010-03-11T19:00:00Z,29.4412,-92.0613,16.08,11111222 
WAVCIS,ioos:station:WAVCIS:CSI03:1,2010-03-11T20:00:00Z,29.4412,-92.0613,16.21,11111222 
WAVCIS,ioos:station:WAVCIS:CSI03:1,2010-03-11T21:00:00Z,29.4412,-92.0613,16.81,11111222 
WAVCIS,ioos:station:WAVCIS:CSI03:1,2010-03-11T22:00:00Z,29.4412,-92.0613,17.13,11111222 
WAVCIS,ioos:station:WAVCIS:CSI03:1,2010-03-11T23:00:00Z,29.4412,-92.0613,17.81,11111222 
WAVCIS,ioos:station:WAVCIS:CSI03:1,2010-03-12T00:00:00Z,29.4412,-92.0613,17.33,11111222 
WAVCIS,ioos:station:WAVCIS:CSI03:1,2010-03-12T01:00:00Z,29.4412,-92.0613,16.54,11111222 
WAVCIS,ioos:station:WAVCIS:CSI03:1,2010-03-12T02:00:00Z,29.4412,-92.0613,15.77,11111222 
WAVCIS,ioos:station:WAVCIS:CSI03:1,2010-03-12T03:00:00Z,29.4412,-92.0613,14.79,11111222 
WAVCIS,ioos:station:WAVCIS:CSI03:1,2010-03-12T04:00:00Z,29.4412,-92.0613,14.09,11111222 